This is the latest recevied weather packets stored in our database for station/object KC7RJK-2. If no packets are shown the sender has not sent any weather packets the latest 10 day(s).
| Time | Temp. | Humidity | Pressure | Rain* | Wind** | Luminosity | Snow |
|---|---|---|---|---|---|---|---|
| 1787386408 | 13.89° C | 89% | 1017.6 hPa | 0 mm | - | - | - |
| 1787385805 | 13.33° C | 89% | 1017.6 hPa | 0 mm | - | - | - |
| 1787385205 | 13.33° C | 89% | 1017.6 hPa | 0 mm | - | - | - |
| 1787384605 | 13.33° C | 88% | 1017.4 hPa | 0 mm | - | - | - |
| 1787384006 | 13.33° C | 87% | 1017.3 hPa | 0 mm | - | - | - |
| 1787383405 | 13.33° C | 87% | 1017.3 hPa | 0 mm | - | - | - |
| 1787382808 | 13.89° C | 86% | 1017.2 hPa | 0 mm | - | - | - |
| 1787382206 | 13.89° C | 85% | 1017.2 hPa | 0 mm | - | - | - |
| 1787381606 | 13.89° C | 85% | 1017 hPa | 0 mm | - | - | - |
| 1787381005 | 14.44° C | 85% | 1017 hPa | 0 mm | - | - | - |
| 1787380406 | 14.44° C | 84% | 1016.9 hPa | 0 mm | - | - | - |
| 1787379804 | 14.44° C | 83% | 1016.8 hPa | 0 mm | - | - | - |
| 1787379208 | 15° C | 83% | 1016.8 hPa | 0 mm | - | - | - |
| 1787378607 | 15° C | 82% | 1016.6 hPa | 0 mm | - | - | - |
| 1787378006 | 15.56° C | 81% | 1016.8 hPa | 0 mm | - | - | - |
| 1787377404 | 15.56° C | 81% | 1016.8 hPa | 0 mm | - | - | - |
| 1787376805 | 16.11° C | 80% | 1016.7 hPa | 0 mm | - | - | - |
| 1787376205 | 16.11° C | 79% | 1016.7 hPa | 0 mm | - | - | - |
| 1787375604 | 16.67° C | 78% | 1016.6 hPa | 0 mm | - | - | - |
| 1787375006 | 16.67° C | 77% | 1016.5 hPa | 0 mm | - | - | - |
| 1787374406 | 17.22° C | 76% | 1016.4 hPa | 0 mm | - | - | - |
| 1787373805 | 17.78° C | 75% | 1016.3 hPa | 0 mm | - | - | - |
| 1787373205 | 17.78° C | 74% | 1016 hPa | 0 mm | - | - | - |
| 1787372606 | 18.33° C | 74% | 1015.9 hPa | 0 mm | - | - | - |
| 1787372004 | 18.89° C | 72% | 1015.7 hPa | 0 mm | - | - | - |
* Rain latest hour (hover to see other rain measurements)
** Current wind speed in m/s (hover to see current wind gust speed)